Overview Statistics Trail Chart Weather Telemetry Raw packets
 

This is the latest recevied weather packets stored in our database for station/object AA6HF. If no packets are shown the sender has not sent any weather packets the latest 10 day(s).

<< 47 48 49 50 51 52 53 >>
Time Temp. Humidity Pressure Rain* Wind** Luminosity Snow
1788364652 30° C 16% 1010.7 hPa 0 mm - - -
1788364333 30° C 18% 1010.8 hPa 0 mm - - -
1788364033 30° C 18% 1010.6 hPa 0 mm - - -
1788363733 30° C 19% 1010.6 hPa 0 mm - - -
1788363433 29.44° C 23% 1010.7 hPa 0 mm - - -
1788363133 29.44° C 22% 1010.6 hPa 0 mm - - -
1788362833 29.44° C 23% 1010.6 hPa 0 mm - - -
1788362533 28.33° C 25% 1010.6 hPa 0 mm - - -
1788362233 27.78° C 26% 1010.6 hPa 0 mm - - -
1788361933 27.22° C 26% 1010.5 hPa 0 mm - - -
1788361633 26.11° C 27% 1010.5 hPa 0 mm - - -
1788361333 25° C 31% 1010.5 hPa 0 mm - - -
1788361033 23.89° C 35% 1010.6 hPa 0 mm - - -
1788360733 23.33° C 36% 1010.6 hPa 0 mm - - -
1788360433 22.78° C 41% 1010.6 hPa 0 mm - - -
1788360133 22.22° C 43% 1010.6 hPa 0 mm - - -
1788359833 21.11° C 44% 1010.6 hPa 0 mm - - -
1788359533 20.56° C 43% 1010.6 hPa 0 mm - - -
1788359233 20° C 44% 1010.6 hPa 0 mm - - -
1788358933 20° C 47% 1010.6 hPa 0 mm - - -
1788358633 20° C 46% 1010.6 hPa 0 mm - - -
1788358333 19.44° C 48% 1010.6 hPa 0 mm - - -
1788358033 20° C 44% 1010.5 hPa 0 mm - - -
1788357733 20° C 45% 1010.4 hPa 0 mm - - -
1788357433 20° C 44% 1010.5 hPa 0 mm - - -

* Rain latest hour (hover to see other rain measurements)
** Current wind speed in m/s (hover to see current wind gust speed)